| time (UTC) | temp F | wind direction | speed MPH | gust MPH | rain 1hr in | rain 24hr in | rain mn in | humidity % | barometer mb |
| 20260901121505 | 61 | 337 | 0.0 | 0.0 | 0.00 | 0.02 | 0.00 | 97 | 1011.3 |
| 20260901120014 | 61 | 337 | 0.0 | 0.0 | 0.00 | 0.02 | 0.00 | 97 | 1011.1 |
| 20260901114513 | 61 | 337 | 0.0 | 0.0 | 0.00 | 0.16 | 0.00 | 97 | 1010.9 |
| 20260901113033 | 61 | 337 | 0.0 | 0.0 | 0.00 | 0.16 | 0.00 | 97 | 1010.8 |
| 20260901111527 | 61 | 337 | 0.0 | 0.0 | 0.00 | 0.16 | 0.00 | 96 | 1010.6 |
| 20260901110026 | 61 | 337 | 0.0 | 0.0 | 0.00 | 0.16 | 0.00 | 96 | 1010.4 |
| 20260901104535 | 61 | 337 | 0.0 | 0.0 | 0.00 | 0.16 | 0.00 | 95 | 1010.4 |
| 20260901103030 | 61 | 337 | 0.0 | 0.0 | 0.00 | 0.16 | 0.00 | 95 | 1010.4 |
| 20260901101521 | 62 | 337 | 0.0 | 0.0 | 0.00 | 0.16 | 0.00 | 96 | 1010.5 |
| 20260901100020 | 62 | 337 | 0.0 | 0.0 | 0.00 | 0.16 | 0.00 | 96 | 1010.6 |
| 20260901094523 | 62 | 337 | 0.0 | 0.0 | 0.00 | 0.16 | 0.00 | 96 | 1010.6 |
| 20260901093019 | 62 | 337 | 0.0 | 0.0 | 0.00 | 0.16 | 0.00 | 96 | 1010.5 |
| 20260901091518 | 62 | 337 | 0.0 | 0.0 | 0.00 | 0.16 | 0.00 | 95 | 1010.4 |
| 20260901090031 | 62 | 337 | 0.0 | 0.0 | 0.00 | 0.16 | 0.00 | 94 | 1010.4 |
| 20260901084517 | 63 | 337 | 0.0 | 0.0 | 0.00 | 0.16 | 0.00 | 95 | 1010.4 |
| 20260901083016 | 63 | 337 | 0.0 | 0.0 | 0.00 | 0.16 | 0.00 | 95 | 1010.4 |
| 20260901081517 | 63 | 337 | 0.0 | 1.0 | 0.00 | 0.16 | 0.00 | 96 | 1010.4 |
| 20260901080017 | 63 | 337 | 0.0 | 0.0 | 0.00 | 0.16 | 0.00 | 96 | 1010.5 |
| 20260901074515 | 63 | 337 | 0.0 | 0.0 | 0.00 | 0.16 | 0.00 | 95 | 1010.5 |
| 20260901073024 | 63 | 337 | 0.0 | 0.0 | 0.00 | 0.16 | 0.00 | 95 | 1010.4 |
| 20260901071515 | 63 | 337 | 0.0 | 0.0 | 0.00 | 0.16 | 0.00 | 95 | 1010.3 |
| 20260901070012 | 63 | 337 | 0.0 | 0.0 | 0.00 | 0.16 | 0.00 | 95 | 1010.4 |
| 20260901064511 | 63 | 337 | 0.0 | 0.0 | 0.00 | 0.16 | 0.00 | 95 | 1010.4 |
| 20260901063010 | 63 | 337 | 0.0 | 0.0 | 0.00 | 0.16 | 0.00 | 95 | 1010.5 |
| 20260901061509 | 63 | 337 | 0.0 | 0.0 | 0.00 | 0.16 | 0.00 | 94 | 1010.4 |
| 20260901060007 | 64 | 337 | 0.0 | 0.0 | 0.00 | 0.16 | 0.00 | 94 | 1010.3 |
| 20260901054507 | 64 | 337 | 0.0 | 0.0 | 0.00 | 0.16 | 0.00 | 94 | 1010.2 |
| 20260901053005 | 64 | 337 | 0.0 | 0.0 | 0.00 | 0.16 | 0.00 | 94 | 1010.4 |
| 20260901051503 | 65 | 337 | 0.0 | 0.0 | 0.00 | 0.16 | 0.00 | 93 | 1010.6 |
| 20260901050100 | 65 | 337 | 0.0 | 0.0 | 0.00 | 0.16 | 0.00 | 93 | 1010.4 |
| 20260901044559 | 65 | 337 | 0.0 | 0.0 | 0.00 | 0.16 | 0.16 | 93 | 1010.4 |
| 20260901043055 | 66 | 337 | 0.0 | 0.0 | 0.00 | 0.16 | 0.16 | 93 | 1010.2 |
| 20260901041554 | 66 | 337 | 0.0 | 0.0 | 0.00 | 0.16 | 0.16 | 93 | 1010.2 |
| 20260901040052 | 67 | 337 | 0.0 | 0.0 | 0.00 | 0.16 | 0.16 | 92 | 1010.0 |
| 20260901034553 | 68 | 337 | 0.0 | 0.0 | 0.00 | 0.16 | 0.16 | 92 | 1010.1 |
| 20260901033051 | 68 | 337 | 0.0 | 0.0 | 0.00 | 0.16 | 0.16 | 92 | 1010.2 |
| 20260901031552 | 69 | 337 | 0.0 | 0.0 | 0.00 | 0.16 | 0.16 | 91 | 1010.1 |
| 20260901030050 | 69 | 337 | 0.0 | 0.0 | 0.00 | 0.16 | 0.16 | 90 | 1009.9 |
| 20260901024550 | 70 | 337 | 0.0 | 0.0 | 0.00 | 0.16 | 0.16 | 88 | 1009.8 |
| 20260901023052 | 71 | 337 | 0.0 | 0.0 | 0.00 | 0.16 | 0.16 | 87 | 1009.9 |
| 20260901021555 | 71 | 337 | 0.0 | 0.0 | 0.00 | 0.16 | 0.16 | 86 | 1009.7 |
| 20260901020050 | 72 | 337 | 0.0 | 0.0 | 0.00 | 0.16 | 0.16 | 85 | 1009.6 |
| 20260901014548 | 73 | 337 | 0.0 | 0.0 | 0.00 | 0.16 | 0.16 | 83 | 1009.6 |
| 20260901013100 | 74 | 337 | 0.0 | 0.0 | 0.00 | 0.16 | 0.16 | 82 | 1009.5 |
| 20260901011549 | 75 | 337 | 0.0 | 0.0 | 0.00 | 0.16 | 0.16 | 81 | 1009.3 |
| 20260901010052 | 76 | 337 | 0.0 | 0.0 | 0.00 | 0.16 | 0.16 | 78 | 1009.4 |
| 20260901004555 | 77 | 337 | 0.0 | 0.0 | 0.00 | 0.16 | 0.16 | 76 | 1009.2 |
| 20260901003055 | 78 | 337 | 0.0 | 0.0 | 0.00 | 0.16 | 0.16 | 73 | 1009.1 |
| 20260901001546 | 80 | 337 | 0.0 | 0.0 | 0.00 | 0.16 | 0.16 | 71 | 1008.9 |
| 20260901000044 | 80 | 337 | 0.0 | 0.0 | 0.00 | 0.16 | 0.16 | 70 | 1008.7 |
| 20260831234544 | 81 | 337 | 0.0 | 2.0 | 0.00 | 0.16 | 0.16 | 68 | 1008.9 |
| 20260831233042 | 81 | 337 | 0.0 | 1.0 | 0.00 | 0.16 | 0.16 | 68 | 1009.0 |
| 20260831231544 | 81 | 337 | 0.0 | 1.0 | 0.00 | 0.16 | 0.16 | 68 | 1008.9 |
| 20260831230040 | 81 | 337 | 0.0 | 2.0 | 0.00 | 0.16 | 0.16 | 70 | 1009.0 |
| 20260831224540 | 81 | 338 | 1.0 | 3.0 | 0.00 | 0.16 | 0.16 | 71 | 1009.0 |
| 20260831223042 | 81 | 338 | 0.0 | 6.0 | 0.00 | 0.16 | 0.16 | 73 | 1008.9 |
| 20260831221542 | 81 | 26 | 0.0 | 3.0 | 0.00 | 0.16 | 0.16 | 76 | 1008.9 |
| 20260831220037 | 82 | 26 | 0.0 | 4.0 | 0.00 | 0.16 | 0.16 | 78 | 1008.8 |
| 20260831214536 | 82 | 17 | 0.0 | 2.0 | 0.00 | 0.16 | 0.16 | 79 | 1008.8 |
| 20260831213042 | 82 | 13 | 1.0 | 3.0 | 0.00 | 0.16 | 0.16 | 78 | 1008.6 |
| 20260831211536 | 83 | 13 | 0.0 | 4.0 | 0.00 | 0.16 | 0.16 | 77 | 1008.4 |
| 20260831210035 | 83 | 316 | 0.0 | 3.0 | 0.00 | 0.16 | 0.16 | 78 | 1008.2 |
| 20260831204535 | 84 | 36 | 1.0 | 5.0 | 0.00 | 0.16 | 0.16 | 77 | 1008.2 |
| 20260831203034 | 83 | 26 | 0.0 | 4.0 | 0.00 | 0.16 | 0.16 | 78 | 1008.1 |
| 20260831201537 | 82 | 29 | 0.0 | 5.0 | 0.00 | 0.16 | 0.16 | 79 | 1008.2 |
| 20260831200025 | 81 | 26 | 0.0 | 1.0 | 0.00 | 0.16 | 0.16 | 83 | 1008.2 |
| 20260831194519 | 80 | 26 | 0.0 | 3.0 | 0.00 | 0.16 | 0.16 | 84 | 1008.4 |
| 20260831193017 | 79 | 26 | 1.0 | 4.0 | 0.00 | 0.16 | 0.16 | 86 | 1008.3 |
| 20260831191519 | 79 | 42 | 0.0 | 3.0 | 0.00 | 0.16 | 0.16 | 87 | 1008.4 |
| 20260831190016 | 79 | 44 | 0.0 | 4.0 | 0.00 | 0.16 | 0.16 | 85 | 1008.3 |
| 20260831184514 | 79 | 219 | 0.0 | 3.0 | 0.00 | 0.16 | 0.16 | 86 | 1008.2 |
| 20260831183011 | 78 | 219 | 0.0 | 3.0 | 0.00 | 0.16 | 0.16 | 88 | 1008.3 |
| 20260831181509 | 77 | 196 | 0.0 | 1.0 | 0.00 | 0.16 | 0.16 | 90 | 1008.5 |
| 20260831180005 | 77 | 196 | 0.0 | 3.0 | 0.00 | 0.16 | 0.16 | 91 | 1008.4 |
| 20260831174503 | 76 | 159 | 0.0 | 0.0 | 0.00 | 0.16 | 0.16 | 93 | 1008.4 |
| 20260831173002 | 76 | 159 | 0.0 | 1.0 | 0.00 | 0.16 | 0.16 | 94 | 1008.5 |
| 20260831171601 | 75 | 159 | 0.0 | 2.0 | 0.00 | 0.16 | 0.16 | 95 | 1008.4 |
| 20260831170058 | 75 | 159 | 0.0 | 2.0 | 0.00 | 0.16 | 0.16 | 97 | 1008.4 |
| 20260831164556 | 73 | 159 | 0.0 | 0.0 | 0.00 | 0.16 | 0.16 | 98 | 1008.4 |
| 20260831163051 | 72 | 159 | 0.0 | 1.0 | 0.00 | 0.16 | 0.16 | 98 | 1008.3 |
| 20260831161552 | 72 | 159 | 0.0 | 0.0 | 0.00 | 0.16 | 0.16 | 99 | 1008.3 |
| 20260831160049 | 71 | 159 | 0.0 | 0.0 | 0.00 | 0.16 | 0.16 | 99 | 1008.3 |
| 20260831154552 | 71 | 159 | 0.0 | 1.0 | 0.00 | 0.16 | 0.16 | 99 | 1008.2 |
| 20260831153047 | 71 | 159 | 0.0 | 3.0 | 0.00 | 0.16 | 0.16 | 99 | 1008.0 |
| 20260831151553 | 72 | 159 | 0.0 | 1.0 | 0.00 | 0.16 | 0.16 | 100 | 1007.9 |
| 20260831150046 | 72 | 159 | 0.0 | 1.0 | 0.00 | 0.16 | 0.16 | 100 | 1007.8 |
| 20260831144607 | 71 | 159 | 0.0 | 0.0 | 0.00 | 0.16 | 0.16 | 100 | 1007.7 |
| 20260831143043 | 71 | 159 | 0.0 | 1.0 | 0.00 | 0.16 | 0.16 | 100 | 1007.5 |
| 20260831141543 | 71 | 159 | 0.0 | 1.0 | 0.00 | 0.16 | 0.16 | 100 | 1007.3 |
| 20260831140040 | 70 | 159 | 0.0 | 0.0 | 0.00 | 0.16 | 0.16 | 100 | 1007.3 |
| 20260831134541 | 70 | 159 | 0.0 | 1.0 | 0.00 | 0.16 | 0.16 | 100 | 1007.5 |
| 20260831133036 | 70 | 159 | 0.0 | 0.0 | 0.00 | 0.16 | 0.16 | 100 | 1007.5 |
| 20260831131532 | 69 | 159 | 0.0 | 0.0 | 0.00 | 0.16 | 0.16 | 100 | 1007.2 |
| 20260831130030 | 69 | 159 | 0.0 | 0.0 | 0.01 | 0.16 | 0.16 | 100 | 1006.9 |
| 20260831124536 | 68 | 159 | 0.0 | 1.0 | 0.02 | 0.16 | 0.16 | 100 | 1006.8 |
| 20260831123034 | 68 | 159 | 0.0 | 1.0 | 0.16 | 0.16 | 0.16 | 100 | 1007.2 |